Skip Navigation Links
NOAA logo - Click to go to the NOAA homepage
NOAA's National Weather Service
Alaska Aviation Weather Unit
  NWS logo - Click to go to the NWS homepage
Left Navbar Graphic     01 AKDT = 09 GMT

   
NOAA is celebrating 200 years of science, service, and stewardship. Visit the NOAA 200th celebration Web site to learn more.
USA.gov is the U.S. Government's official Web portal to all Federal, state and local government Web resources and services.
Facebook
NWS on Facebook

Important Change Regarding the AAWU Web Presence

 

Over the last several months, the AAWU has been working to navigate its webpages to a nationally supported server. Security, as well as other needs, have necessitated the change.  We have been given an extension for the site changeover while we diligently work at addressing feedback received. As of July 14, 2017, aawu.arh.noaa.gov will be discontinued. The new AAWU web address is weather.gov/aawu. It is now live and will run in-parallel with the old site until it is discontinued on July 14, 2017. Please continue to send any feedback or questions regarding the new webpages to nws.ar.aawu.webauthors@noaa.gov.  Thank you for your patience during this time of transition.
AAWU Home :: Display TAF Add Bookmark
TAF PAWG 190524Z 1906/2006  08005KT 6SM -SHRA BKN035 OVC060
      TEMPO 1909/1912 16010KT 4SM -SHRA BR FEW006 SCT010 OVC025
     FM191200 14006KT 6SM -SHRA BR SCT005 OVC025
     FM192000 12010KT 4SM -SHRA BR SCT010 OVC015
      AMD LTD TO CLD VIS AND WIND 1906/1915=

7454
FTAK31 PAJN 190524
TAFAGY
TAF
METAR PAWG 190356Z 07003KT 10SM FEW030 SCT035 BKN070 12/11 A3007=

METAR PAWG 190450Z 10004KT 10SM SCT035 BKN070 12/11 A3009=

PAWG 190545Z 11003KT 10SM FEW035 SCT065 11/11 A3010=

METAR PAWG 190656Z AUTO 10004KT 10SM FEW030 BKN070 11/11 A3010=


NOAA's National Weather Service
Alaska Aviation Weather Unit
6930 Sand Lake Road
Anchorage, AK 99502-1845
Disclaimer
Credits
Glossary
Privacy Policy
About Us
Career Opportunities
Contact AAWU Internet Services Site last modified: April, 17th 2012